Theta_e
308 308 307 307 307 306 306 306 306 306 306 306 306 306 305 304 304 302 301 299 297 296 295 295 295 295 295 295 295 295 295 295 295 295 295 295 295 295 295 295 294 294
308 307 307 307 306 306 306 306 306 307 307 307 307 306 305 304 303 302 301 300 298 296 295 295 295 295 295 295 295 295 295 295 295 295 295 295 295 295 295 295 294 294
308 308 307 307 307 307 307 307 307 307 307 307 307 306 306 305 303 302 301 300 299 297 296 295 295 295 295 295 295 295 295 295 295 295 295 295 294 295 294 294 294 293
308 308 308 308 308 308 307 307 307 307 307 307 307 307 306 305 304 302 301 300 299 298 296 295 294 294 294 294 294 294 294 294 294 294 294 294 294 294 294 294 294 293
309 308 308 308 308 308 307 308 308 308 308 308 308 307 306 305 304 302 301 300 299 298 297 295 294 294 294 294 294 294 294 294 294 294 294 294 294 294 294 294 294 293
309 308 308 308 307 307 307 308 308 308 308 308 307 306 306 305 304 303 301 300 299 298 297 296 294 294 293 293 293 293 294 294 294 294 294 294 294 294 294 294 294 293
310 310 309 308 307 307 307 307 307 307 307 307 306 306 306 305 304 303 302 300 299 298 298 297 295 294 293 293 293 293 293 293 294 294 294 294 293 293 294 294 293 293
311 311 310 309 308 307 307 307 308 308 307 306 306 306 306 305 304 303 302 300 299 298 298 297 296 295 293 293 293 293 293 293 293 293 293 293 293 293 293 293 293 292
310 310 309 309 309 308 308 308 308 308 307 307 306 306 305 305 304 303 302 300 299 298 297 297 296 295 294 293 292 293 293 293 293 293 293 293 293 293 293 293 293 292
310 310 309 308 308 309 309 309 308 308 307 307 306 305 305 305 304 303 302 300 299 298 298 297 296 295 294 293 292 292 292 293 293 293 293 293 293 293 293 293 292 291
311 310 309 308 308 309 309 309 309 308 308 307 307 306 305 305 304 303 302 301 300 299 298 297 296 295 294 293 292 292 292 292 293 293 293 293 293 293 293 292 291 290
311 310 310 309 309 309 309 309 309 309 308 308 307 307 306 305 304 304 303 303 302 300 299 298 296 295 294 293 293 292 292 292 292 292 292 292 292 292 292 291 290 290
311 311 311 310 310 309 309 307 307 308 308 308 308 307 306 305 305 305 304 304 303 301 300 298 297 296 294 294 293 292 292 291 292 292 292 292 292 291 291 290 290 289
311 312 312 311 310 308 307 306 306 306 306 307 307 306 306 305 305 304 304 303 301 300 299 298 297 295 294 294 293 293 292 291 291 291 291 292 291 291 291 290 289 289
311 311 311 311 309 307 307 306 305 305 305 305 305 305 305 303 302 301 301 300 299 298 298 297 296 295 294 294 293 293 292 291 290 291 291 291 291 291 291 290 289 289
309 309 309 309 308 307 306 305 305 304 304 304 304 304 302 301 300 299 298 298 297 297 297 297 296 295 294 294 293 293 292 291 290 290 291 291 291 291 290 289 289 288
307 307 307 307 306 306 305 305 304 304 304 303 303 302 301 300 299 298 297 297 297 297 297 296 296 295 294 293 293 293 292 291 290 290 290 290 290 290 289 289 288 288
307 306 306 306 305 304 304 304 303 303 303 303 302 302 300 299 298 298 297 297 296 296 296 295 295 294 294 293 293 292 291 290 290 290 290 290 290 289 289 288 288 288
306 305 305 305 304 303 303 302 301 302 302 302 302 301 300 298 298 297 296 296 296 296 295 295 294 293 293 293 292 292 291 290 289 289 289 289 289 289 288 288 288 287
303 303 303 303 302 302 302 301 300 300 300 300 300 299 298 298 297 296 296 296 296 295 295 295 294 293 293 292 292 291 290 289 289 288 288 288 288 288 288 287 287 287
300 300 300 300 300 300 300 300 299 298 298 298 298 298 298 298 297 296 296 296 295 295 294 294 293 293 292 292 291 290 290 289 288 287 287 287 287 287 287 287 286 287
299 299 298 298 298 298 298 298 298 297 297 297 297 296 296 296 296 296 296 295 295 295 294 293 293 292 291 291 290 290 289 289 288 287 287 287 287 287 286 286 286 286
298 298 297 297 297 297 297 297 297 297 296 296 296 296 296 296 296 295 296 296 296 294 294 293 292 292 291 290 290 289 289 288 287 287 286 286 286 286 286 286 286 286
297 297 297 297 297 296 296 296 296 296 295 295 295 296 296 296 295 295 295 296 295 294 294 293 292 292 291 290 289 288 288 288 287 287 286 286 286 286 286 285 286 286
297 296 296 296 296 295 295 295 295 295 295 295 294 295 295 295 294 294 295 294 294 294 293 292 292 291 290 290 289 288 288 287 287 286 286 286 286 286 285 285 285 285
296 296 295 295 294 294 294 294 293 293 294 294 294 294 293 293 294 294 294 293 293 292 292 291 291 291 290 289 288 287 287 287 286 286 286 286 286 286 285 285 286 285
Wind_Speed
37 38 39 40 40 39 39 39 38 37 36 36 37 38 39 39 40 40 42 43 44 44 44 43 42 41 40 39 37 34 31 28 26 24 22 20 19 18 18 18 19 21
37 39 40 40 40 39 39 39 38 37 36 35 36 37 38 38 39 39 40 42 43 44 44 44 43 43 42 41 39 36 33 31 29 26 24 22 20 19 19 19 20 21
38 39 40 40 39 39 39 39 39 38 36 36 37 37 38 39 39 39 39 41 43 44 45 45 45 44 43 42 40 37 35 32 30 27 25 23 21 20 20 20 20 21
38 40 40 40 39 39 40 40 40 39 38 39 39 39 40 40 39 39 39 40 42 44 46 46 46 46 45 44 41 39 36 33 30 28 26 24 23 21 21 21 21 21
39 41 41 41 41 42 42 42 42 41 41 41 41 41 41 41 41 40 40 40 41 43 45 47 48 47 46 45 43 41 38 35 33 31 29 26 24 23 23 22 22 23
40 42 43 44 44 45 45 44 44 43 43 43 43 43 43 42 42 41 40 40 40 41 43 46 48 49 48 47 45 42 40 37 35 33 31 28 26 25 24 23 23 23
40 43 45 46 46 47 47 46 46 46 45 45 46 45 44 43 43 42 41 40 39 40 41 43 46 48 49 48 46 44 42 39 37 35 32 30 28 26 25 25 24 23
40 43 45 47 48 49 49 49 48 48 48 48 48 47 46 45 44 43 42 41 39 39 39 40 43 47 50 50 48 47 44 41 39 37 35 32 30 28 26 25 25 24
41 45 47 49 50 51 51 51 50 50 50 50 50 49 48 47 46 45 44 42 41 39 38 40 42 45 49 50 50 49 47 44 41 39 37 34 31 29 27 26 26 25
42 47 50 52 53 53 53 52 52 52 52 52 52 52 50 49 48 47 45 44 42 40 39 40 41 43 47 50 51 50 48 45 43 40 38 35 32 29 28 27 26 25
42 47 52 54 54 54 54 53 54 54 54 54 54 53 52 51 50 49 48 46 45 43 41 40 40 42 45 48 50 50 48 46 43 41 38 35 33 31 30 28 27 26
44 47 50 52 53 55 56 56 56 56 56 56 56 55 54 54 53 51 49 48 47 45 42 40 39 40 43 45 48 50 49 47 44 41 38 36 34 32 31 29 27 26
48 49 50 50 51 53 56 57 58 58 58 58 57 57 57 56 55 54 52 50 49 47 45 42 40 40 41 43 46 48 50 49 46 43 40 38 36 33 31 29 27 26
51 50 50 51 51 53 56 58 58 59 59 59 58 59 59 58 57 56 54 53 51 49 46 43 42 41 42 43 45 48 50 51 48 44 42 40 37 34 32 30 29 27
54 52 51 52 53 54 55 56 56 57 57 58 58 59 60 59 57 56 55 53 51 48 45 44 43 42 42 43 45 47 51 52 49 46 44 41 38 35 33 32 30 28
57 55 53 54 55 54 54 54 54 55 55 55 56 57 58 58 56 55 54 52 49 47 45 45 44 44 43 43 44 47 50 52 50 47 44 41 38 37 35 32 30 29
54 55 55 55 55 54 52 52 52 53 53 54 54 55 55 55 55 54 53 50 48 46 45 45 45 45 43 43 44 47 50 52 51 48 45 42 40 38 35 33 31 29
48 52 53 53 54 53 52 52 52 52 53 54 54 54 54 53 53 52 51 48 46 46 45 45 44 44 43 43 44 46 48 50 50 48 45 43 41 38 36 33 32 30
43 47 49 50 51 52 52 52 53 54 54 55 54 53 52 51 51 50 49 47 46 45 44 43 43 43 42 42 43 45 47 49 49 48 45 43 40 38 36 34 32 31
40 43 46 47 49 51 51 52 53 53 53 53 52 51 51 50 49 48 47 46 45 44 43 43 43 42 41 41 43 45 47 48 48 47 44 41 39 37 36 35 33 31
37 39 42 43 46 48 49 49 50 51 51 50 50 49 48 47 46 46 45 45 44 43 42 42 42 41 41 41 43 45 47 48 48 46 43 41 39 37 36 34 33 31
32 34 37 39 41 44 45 46 46 48 48 48 47 46 45 44 44 44 43 43 42 42 42 42 42 41 41 42 43 45 48 49 48 46 44 41 39 38 37 35 33 32
29 30 32 34 37 40 42 43 44 44 45 45 45 44 44 44 43 43 41 41 41 42 42 42 42 41 42 42 44 47 49 50 49 47 44 41 39 38 37 36 35 32
28 27 28 30 33 36 38 40 41 41 42 43 43 43 42 42 42 41 40 40 41 41 41 41 41 40 41 43 45 48 50 49 48 46 44 41 40 39 38 37 35 32
28 27 26 27 29 31 34 36 38 39 39 40 40 40 40 40 39 39 40 41 41 40 40 40 39 39 41 43 45 48 50 48 47 47 45 43 41 40 39 37 35 32
32 28 26 25 26 27 29 32 34 36 36 37 37 38 38 38 38 38 39 40 40 40 40 40 39 39 41 44 45 47 49 48 47 47 46 43 41 40 39 37 35 34
Wind_Direction
238 239 240 241 242 243 244 244 244 244 244 243 243 242 241 241 239 237 236 235 234 232 231 230 230 229 229 229 230 231 232 234 236 239 243 248 255 260 264 269 272 275
240 240 241 241 242 243 243 243 244 243 243 243 244 245 244 243 242 239 238 237 236 234 232 231 230 229 229 229 230 230 231 233 235 238 242 246 251 256 259 263 267 271
241 241 241 240 240 240 241 242 242 242 242 242 243 244 244 244 243 241 239 239 238 236 234 232 231 230 229 229 230 230 231 233 236 238 241 243 247 252 255 259 263 268
242 241 240 240 239 240 241 241 241 241 240 239 239 241 242 243 243 241 239 238 238 238 235 233 231 230 230 229 229 229 230 232 234 236 237 241 245 249 253 258 262 266
245 245 243 242 241 240 241 240 239 238 237 237 237 239 241 242 242 241 239 237 236 237 236 234 232 231 230 229 229 228 229 229 231 233 235 239 243 247 252 256 260 264
249 248 246 245 244 243 242 240 239 239 238 237 238 239 240 241 242 242 240 238 236 236 236 235 233 232 231 229 228 228 228 229 230 233 235 238 241 245 250 254 258 262
250 249 248 247 247 245 244 243 242 241 240 239 239 239 240 241 242 243 242 240 237 236 236 236 235 234 232 230 229 228 228 228 230 232 233 236 238 242 247 252 256 260
253 252 251 249 248 246 245 243 242 241 240 241 241 240 240 241 242 244 244 243 240 238 237 237 237 235 233 231 230 229 228 228 229 231 232 234 236 241 246 251 255 257
259 255 253 251 249 248 246 244 243 241 241 241 242 241 241 242 243 244 245 244 242 240 238 237 237 236 234 232 231 230 229 229 230 231 232 234 237 241 245 248 252 255
264 260 255 253 251 250 248 247 246 244 243 242 243 244 243 242 243 244 245 245 244 242 240 238 237 237 235 233 231 231 230 230 231 231 233 235 237 240 243 246 249 252
266 263 259 256 255 253 251 250 248 247 246 245 245 245 245 244 244 244 245 245 245 244 242 240 238 238 237 234 232 231 231 230 231 232 233 235 237 239 241 243 246 250
266 265 262 261 260 258 254 251 249 248 247 246 246 246 246 245 245 245 245 246 247 246 245 243 240 238 238 237 234 232 231 230 230 231 232 234 236 238 239 242 245 248
269 269 268 266 264 261 257 252 249 248 247 246 246 246 246 246 246 246 246 246 247 247 246 245 241 238 237 237 235 233 231 229 229 229 230 232 234 236 238 241 244 247
271 272 272 269 264 260 256 253 250 248 247 246 246 246 246 246 245 245 244 244 244 244 244 243 241 237 235 235 235 233 231 229 228 228 229 231 233 235 237 240 242 245
273 273 273 269 262 257 254 253 251 250 248 247 246 246 246 245 244 243 243 242 242 242 242 242 240 238 235 233 234 233 230 228 227 228 230 231 232 234 236 237 240 243
275 273 271 266 261 257 255 253 251 249 248 247 247 247 246 245 243 242 242 242 241 241 241 241 240 238 235 233 233 234 232 228 227 228 229 230 232 233 234 236 237 240
277 272 269 266 261 257 255 252 250 248 247 246 246 245 244 244 242 241 241 241 241 241 241 241 240 238 235 233 233 234 232 229 228 228 228 230 231 232 233 234 235 237
280 274 269 266 261 256 253 251 248 246 245 244 244 244 243 242 241 241 240 239 240 239 239 240 239 238 235 233 233 233 232 229 228 228 229 229 230 231 231 232 233 235
281 275 269 266 261 255 252 249 245 244 243 242 242 242 241 240 240 239 238 238 238 238 238 239 238 236 235 234 234 234 232 229 227 228 229 229 230 231 231 231 231 232
283 276 271 266 261 256 252 248 245 243 242 241 241 239 239 239 238 237 237 237 237 237 237 237 237 235 233 232 233 233 231 228 226 226 227 228 230 231 231 231 230 230
288 281 273 267 261 257 252 249 246 244 243 242 240 239 239 239 238 238 237 236 236 236 236 235 234 233 231 230 230 231 230 227 225 225 225 226 228 229 229 229 228 228
298 287 278 271 265 259 254 250 248 246 244 242 240 239 238 238 238 237 236 236 236 235 234 233 232 230 229 228 228 229 229 226 223 223 224 225 227 227 226 226 225 226
310 298 287 278 270 263 258 254 250 247 245 242 240 238 237 237 236 235 235 236 236 234 232 231 230 228 227 227 227 228 228 225 222 221 223 225 225 226 225 225 224 225
319 309 298 286 276 269 263 258 253 248 245 242 240 239 238 237 236 234 234 235 234 233 233 232 231 229 226 226 226 227 228 226 222 221 222 223 223 224 224 224 224 226
332 321 308 295 284 275 268 261 255 250 246 243 241 240 238 237 235 235 234 234 233 233 233 233 232 229 226 225 225 227 229 227 223 221 221 221 222 223 223 223 223 225
342 333 319 306 294 283 272 264 257 252 248 244 241 239 237 235 235 235 234 233 232 232 232 231 230 228 226 225 224 225 228 225 221 221 222 221 222 223 222 222 223 224